Location: Bailleul
(50.3375°N, 2.8513°E)
Time: 14:23:46
(UTC+00:00)

Cosmos 2360 Rocket - Pass Details

Date: 16 June 2021
Orbit: 835 x 843 km, 71.0° (Epoch: 04 August)

Event Time Altitude Azimuth Distance (km) Brightness Sun altitude
Rises 23:28:10 0° 254° (WSW) 3,389 5.2 -16.1°
Reaches altitude 10° 23:31:07 10° 269° (W) 2,456 4.7 -16.2°
Maximum altitude 23:35:32 23° 320° (NW) 1,717 4.5 -16.2°
Drops below altitude 10° 23:39:58 10° 13° (NNE) 2,461 5.8 -16.3°
Sets 23:42:57 0° 27° (NNE) 3,398 6.4 -16.3°
